Location: Bittelbronn
(48.4454°N, 8.5870°E)
Time: 16:55:36
(UTC+00:00)

FENGYUN 1C DEB - Visible Passes

Search period start: 07 October 2024 00:00
Search period end: 17 October 2024 00:00
Orbit: 808 x 908 km, 99.0° (Epoch: 06 October)

Date Brightness Start Highest point End Pass type
(mag) Time Alt. Az. Time Alt. Az. Time Alt. Az.
07 Oct ? 19:27:49 29° NE 19:27:49 29° NE 19:31:27 10° N visible
07 Oct ? 21:09:58 26° NW 21:09:58 26° NW 21:12:36 10° NNW visible
08 Oct ? 19:18:05 25° NE 19:18:05 25° NE 19:21:37 10° N visible
08 Oct ? 21:00:16 28° NW 21:00:16 28° NW 21:02:58 10° NNW visible
09 Oct ? 19:08:22 23° NE 19:08:22 23° NE 19:11:43 10° N visible
09 Oct ? 20:50:32 29° NNW 20:50:32 29° NNW 20:53:18 10° NNW visible
10 Oct ? 18:58:36 20° NE 18:58:36 20° NE 19:01:46 10° N visible
10 Oct ? 20:40:46 30° NNW 20:40:46 30° NNW 20:43:35 10° NNW visible
11 Oct ? 18:48:51 18° NE 18:48:51 18° NE 18:51:45 10° NNE visible
11 Oct ? 20:31:00 31° NNW 20:31:00 31° NNW 20:33:50 10° NNW visible
12 Oct ? 18:39:02 15° NE 18:39:02 15° NE 18:41:39 10° NNE visible
12 Oct ? 20:21:12 30° N 20:21:12 30° N 20:24:02 10° NNW visible
12 Oct ? 22:03:21 11° NW 22:03:21 11° NW 22:03:43 10° NW visible
13 Oct ? 18:29:14 13° NE 18:29:14 13° NE 18:31:26 10° NNE visible
13 Oct ? 20:11:23 30° N 20:11:23 30° N 20:14:11 10° N visible
13 Oct ? 21:53:33 13° NW 21:53:33 13° NW 21:54:14 10° NW visible
14 Oct ? 18:19:23 12° NE 18:19:23 12° NE 18:20:59 10° NNE visible
14 Oct ? 20:01:33 28° N 20:01:33 28° N 20:04:19 10° N visible
14 Oct ? 21:43:42 14° NW 21:43:42 14° NW 21:44:40 10° NW visible
15 Oct ? 19:51:42 27° N 19:51:42 27° N 19:54:23 10° N visible
15 Oct ? 21:33:50 15° NW 21:33:50 15° NW 21:35:00 10° NNW visible
16 Oct ? 19:41:48 25° NNE 19:41:48 25° NNE 19:44:26 10° N visible
16 Oct ? 21:23:57 17° NW 21:23:57 17° NW 21:25:17 10° NNW visible
